Location: Unspecified
(51.0950°N, 12.9690°E)
Time: 15:22:30
(UTC+00:00)

Cosmos 1606 Rocket - Pass Details

Date: 28 October 2021
Orbit: 601 x 633 km, 82.5° (Epoch: 26 November)

Event Time Altitude Azimuth Distance (km) Brightness Sun altitude
Rises 18:25:58 0° 203° (SSW) 2,917 7.2 -25.1°
Reaches altitude 10° 18:28:15 10° 208° (SSW) 2,012 6.4 -25.4°
Maximum altitude 18:32:36 51° 285° (WNW) 795 4.4 -26.1°
Drops below altitude 10° 18:36:58 10° 2° (N) 2,016 6.3 -26.8°
Sets 18:39:16 0° 7° (N) 2,923 7.1 -27.1°
